Theta_e
309 306 308 308 306 308 308 309 310 309 309 311 309 308 306 303 301 300 300 299 300 301 301 302 304 305 307 308 309 311 314 319 322 323 324 322 321 320 318 318 319 320 320 320
308 307 307 307 306 308 308 309 309 308 309 308 309 309 303 301 300 300 299 299 299 300 301 302 303 305 305 306 306 307 307 308 309 310 311 312 314 316 315 314 314 315 315 315
309 311 308 308 308 308 308 308 309 311 309 308 307 308 305 300 299 299 299 299 299 300 301 302 303 303 303 304 304 304 305 305 306 306 307 309 310 312 312 312 312 311 310 310
308 309 310 308 309 308 310 308 310 311 309 311 307 311 308 302 300 299 298 299 299 300 300 300 301 302 302 303 303 303 303 303 303 303 304 305 305 305 304 304 304 304 303 303
314 310 309 311 311 309 312 308 308 308 307 308 308 308 306 302 301 299 297 298 299 300 300 300 300 301 301 301 302 302 302 302 302 303 302 302 302 301 300 300 300 299 299 299
311 308 308 310 308 309 306 308 306 304 305 310 309 310 309 305 304 299 298 299 299 299 299 299 299 299 300 300 300 300 300 300 300 299 299 299 299 297 297 295 295 293 292 292
309 309 308 309 308 307 309 310 313 311 310 313 307 307 308 306 302 301 298 299 299 298 298 298 298 299 299 299 298 298 297 298 296 296 296 295 295 294 293 292 292 291 291 290
311 315 308 307 309 309 308 310 312 311 309 310 308 312 312 301 299 300 301 300 299 298 298 298 299 299 298 297 297 296 295 295 294 293 293 293 292 292 291 291 291 290 290 290
312 315 306 307 307 308 308 310 308 307 296 306 309 308 304 299 298 297 298 299 299 298 299 299 299 298 297 297 296 294 294 294 293 292 291 291 291 291 291 290 289 289 289 288
312 314 309 306 306 305 308 306 311 307 307 306 307 308 307 303 299 296 296 297 299 299 298 299 300 299 298 297 295 293 292 291 291 291 290 290 290 289 289 289 289 289 288 288
309 312 310 308 308 307 307 309 306 307 304 304 302 305 303 304 300 298 297 299 300 300 300 300 301 299 297 296 294 292 291 290 290 290 290 289 289 289 289 288 288 288 288 287
309 310 308 310 306 305 306 307 307 310 308 304 305 309 301 302 300 299 299 301 301 301 301 301 300 299 298 296 294 292 290 290 290 289 289 289 289 289 288 288 288 287 287 286
309 309 304 307 307 305 307 305 305 305 303 304 306 307 301 300 300 300 300 302 302 301 301 300 299 299 298 296 294 291 290 289 289 289 289 289 289 288 288 288 288 287 286 285
310 307 307 313 308 307 308 306 305 304 304 304 309 307 305 302 301 299 300 302 302 301 301 300 299 299 297 296 294 291 289 289 289 289 289 289 288 288 288 288 288 287 286 285
308 310 304 302 303 303 304 306 306 306 308 308 309 307 304 303 301 302 304 302 301 300 298 299 299 299 297 295 293 290 289 289 289 289 289 289 289 288 288 288 288 287 285 284
302 304 301 299 301 302 303 303 304 305 303 303 303 303 299 302 303 301 302 302 300 299 298 297 297 298 296 295 293 290 290 290 289 289 289 289 288 288 288 288 288 286 284 283
304 302 301 307 297 301 308 304 303 303 301 303 304 305 293 296 297 299 299 299 299 298 296 295 296 297 295 293 292 291 290 290 290 289 289 288 288 288 288 288 287 285 284 283
300 302 303 298 297 306 301 291 296 302 302 299 293 292 293 295 296 296 297 296 295 294 294 294 296 295 293 292 292 291 291 290 290 289 289 288 288 288 288 288 287 284 283 282
298 301 298 301 300 302 300 292 292 294 294 293 295 294 293 293 292 292 293 293 292 293 293 293 292 291 291 290 290 290 290 289 289 289 288 288 288 288 288 287 285 283 282 282
297 299 307 294 302 304 295 289 291 293 296 289 293 292 290 290 286 287 292 292 292 292 292 291 291 290 290 290 290 289 289 289 289 289 288 288 288 288 287 285 283 282 282 281
296 296 304 297 304 297 292 289 291 293 295 289 290 292 290 288 291 292 291 292 292 292 292 291 290 290 291 290 289 289 289 289 289 288 288 287 287 287 286 284 282 281 281 281
295 297 295 295 298 300 290 289 293 293 291 293 292 292 292 292 292 291 291 292 292 291 291 291 291 291 290 290 289 289 289 289 288 287 287 286 286 285 285 283 281 281 280 280
292 293 292 295 296 289 290 293 294 294 294 293 293 292 293 292 291 291 291 291 291 290 290 290 290 290 290 290 289 289 289 288 287 286 285 285 284 285 284 281 280 280 279 279
288 287 290 290 289 289 291 293 293 293 293 293 293 293 292 291 291 291 291 291 291 290 290 290 290 290 290 290 289 289 288 287 286 285 284 284 284 284 282 280 279 279 278 278
290 288 287 288 289 290 291 292 293 293 293 292 292 292 292 291 291 291 290 290 290 290 290 290 290 290 290 289 289 288 287 286 285 284 283 283 283 282 279 279 278 278 277 276
288 288 289 288 291 291 292 293 293 292 291 291 291 291 291 291 291 291 291 290 290 290 290 290 290 290 289 288 288 286 285 284 284 283 282 282 281 279 278 278 278 276 276 275
Wind_Speed
3 4 8 13 10 2 4 4 5 3 3 0 7 7 4 8 12 11 11 13 15 17 17 17 18 17 15 13 12 13 13 15 11 9 8 7 3 1 3 4 5 5 5 7
3 7 9 4 5 5 2 2 5 5 2 6 4 6 3 6 5 7 11 13 16 18 19 22 25 26 28 28 28 25 22 18 16 12 12 10 8 5 4 4 6 8 9 10
8 5 6 7 5 6 5 6 4 7 3 1 4 6 4 4 9 10 11 13 14 16 18 21 24 26 28 29 29 28 28 27 26 21 16 12 10 9 6 4 3 4 5 6
6 5 6 5 6 7 5 8 5 4 4 4 1 5 3 5 4 5 10 14 14 14 17 19 22 24 26 27 24 24 24 24 24 21 19 16 16 14 15 12 11 10 9 9
7 6 6 5 6 8 6 5 5 2 3 1 2 0 5 5 5 6 10 13 15 16 17 19 19 20 21 19 18 17 17 16 16 15 14 14 15 15 14 12 10 10 10 9
4 1 5 6 2 4 7 6 6 4 3 1 6 6 4 5 5 6 14 16 15 16 16 17 16 15 15 15 14 12 11 12 12 11 12 12 12 12 10 10 9 10 11 11
1 4 2 4 6 3 4 5 1 3 1 5 2 1 7 3 2 9 18 25 20 17 16 14 12 11 11 9 9 8 8 9 9 8 9 9 9 8 8 9 10 10 11 13
7 3 9 5 4 7 6 6 5 6 3 3 2 6 5 3 4 9 24 26 21 20 17 13 9 8 7 6 6 5 5 6 6 7 7 8 8 8 9 10 11 11 12 13
6 3 2 3 3 2 5 4 4 6 2 2 4 5 2 1 2 10 22 26 24 22 20 15 10 7 4 3 2 1 1 2 3 3 5 5 6 7 8 9 11 12 13 14
7 3 0 2 4 4 4 7 3 2 2 4 5 5 5 6 8 6 13 25 26 24 22 17 12 7 6 4 3 3 3 3 2 2 2 3 5 7 9 11 12 14 15 16
6 3 2 4 6 8 3 3 3 4 4 5 2 5 6 7 10 14 20 29 29 27 25 19 14 12 10 8 6 7 6 5 4 2 2 4 6 9 10 12 14 15 16 17
8 5 4 6 3 3 0 6 6 5 5 2 2 8 4 4 15 23 25 30 28 26 23 19 17 15 13 11 10 10 10 9 6 4 4 6 8 11 13 14 16 17 18 19
9 2 2 5 2 2 4 5 3 4 4 8 5 6 3 4 9 19 21 26 26 24 21 21 21 21 19 16 14 14 13 10 8 7 8 9 11 13 16 19 20 21 23 23
9 5 7 9 5 6 5 6 6 6 5 5 15 12 3 4 6 10 20 24 23 19 18 21 24 25 22 19 16 16 15 12 11 12 13 13 15 18 21 23 25 26 26 27
5 7 5 2 3 3 3 6 14 13 16 11 13 12 7 9 9 16 21 23 24 18 17 19 20 22 24 22 19 19 17 15 15 15 17 18 20 21 23 25 27 28 27 29
2 2 4 2 1 3 3 8 6 14 3 3 2 12 7 13 15 11 17 26 30 20 13 13 17 22 24 22 20 20 19 17 17 20 22 23 23 22 23 28 30 30 30 32
5 6 3 5 3 4 8 12 12 6 6 9 12 13 4 6 12 19 20 20 21 15 15 16 20 23 24 21 18 20 19 20 23 24 25 25 24 25 26 29 32 32 32 36
7 7 2 4 2 7 2 4 1 11 6 8 1 4 6 7 11 11 12 14 13 14 16 17 19 20 20 18 19 19 22 26 28 29 26 24 25 27 29 32 33 31 33 35
1 5 3 4 5 7 2 5 7 8 10 9 9 6 10 8 5 7 10 9 10 11 13 14 13 15 15 15 16 20 24 28 31 29 26 25 26 29 31 33 32 32 33 35
3 4 6 4 4 8 3 2 8 5 7 10 16 8 11 12 2 4 3 7 10 12 14 16 17 16 16 17 18 21 24 28 30 30 29 28 29 30 32 31 30 31 33 36
3 1 11 6 8 6 5 7 11 6 6 8 16 14 19 5 9 6 9 11 12 15 16 17 19 21 21 18 19 20 22 27 32 32 31 30 30 30 30 31 30 31 33 35
7 9 4 2 3 10 13 5 8 5 4 14 17 20 18 12 9 12 15 15 12 11 15 21 25 26 23 21 24 26 26 28 32 32 31 29 28 29 31 31 31 30 32 34
3 6 5 9 5 0 28 6 17 10 12 18 21 22 18 15 14 12 16 18 15 16 18 21 26 30 28 28 29 29 30 32 33 32 30 29 29 30 29 30 29 30 30 32
4 4 2 3 4 6 24 17 9 15 15 16 19 21 19 15 14 16 17 21 21 19 20 22 25 28 30 31 30 30 33 33 32 31 30 29 30 31 27 28 28 29 28 31
4 9 6 3 2 3 12 19 18 18 18 18 19 21 22 21 22 21 21 22 22 22 20 23 25 27 28 27 29 32 33 31 30 31 30 30 31 28 27 27 26 26 26 28
9 6 5 5 13 11 11 16 16 18 16 14 17 21 23 22 22 21 23 20 21 22 24 23 23 23 25 28 30 31 30 30 31 32 31 31 30 27 27 27 27 22 24 24
Wind_Direction
157 128 206 199 200 159 145 180 214 247 224 193 243 249 339 63 83 89 93 92 84 78 75 75 74 75 75 73 70 72 80 79 82 93 108 115 96 63 333 313 315 298 290 275
71 223 228 148 160 175 156 168 250 284 284 184 313 281 76 48 64 108 114 102 99 98 93 89 85 82 77 74 71 70 72 76 76 78 73 71 70 82 58 358 323 333 331 312
180 208 146 171 164 166 206 196 200 221 346 345 341 286 182 58 103 113 118 120 117 109 100 93 88 83 80 76 72 71 70 68 64 61 67 72 72 82 83 64 32 355 340 318
233 251 184 168 196 153 218 204 173 177 122 225 59 279 243 172 149 140 148 145 134 121 106 100 95 88 80 76 73 70 67 65 66 68 65 67 69 70 67 60 50 39 28 21
232 179 186 190 191 165 216 118 150 130 127 56 251 293 256 140 201 197 187 167 150 138 127 116 103 94 87 82 72 67 61 63 68 66 67 67 70 73 76 74 72 70 65 59
228 211 173 204 104 153 139 79 52 55 92 282 229 184 254 196 195 164 181 182 168 151 140 128 116 105 93 82 72 67 62 65 71 72 76 75 83 87 86 76 59 48 41 38
169 212 189 164 88 61 104 111 299 341 24 230 5 188 250 176 149 180 180 184 176 164 154 141 127 114 99 86 70 62 62 67 67 64 69 67 62 56 45 42 34 26 20 18
167 201 167 191 192 170 177 163 156 223 210 261 343 233 260 261 296 236 193 178 174 173 166 160 146 131 113 90 74 60 60 65 67 57 51 48 45 38 31 25 16 9 6 4
154 259 98 90 126 135 182 179 157 103 39 21 234 282 275 44 46 139 162 174 182 181 179 179 175 164 146 122 106 116 87 88 92 75 63 44 33 25 16 12 5 360 356 352
203 117 63 144 109 47 151 158 85 10 178 257 279 273 238 222 202 169 168 187 189 189 193 195 196 201 201 199 207 206 195 181 154 105 42 15 7 4 359 353 345 343 341 339
151 125 219 136 207 170 135 174 68 123 149 175 258 253 210 219 177 182 198 196 194 196 201 205 212 217 211 217 217 216 212 209 208 222 294 331 336 334 335 331 330 328 328 326
193 140 167 195 139 91 164 194 161 164 216 253 146 257 3 252 179 185 198 200 202 206 210 217 229 227 228 230 230 225 220 218 226 254 286 300 311 318 320 323 325 324 325 324
175 198 83 354 32 39 192 205 161 92 79 194 170 259 34 70 164 201 203 206 207 210 215 228 235 235 233 231 231 228 222 223 238 256 274 292 302 312 318 320 321 321 320 320
140 144 171 211 187 137 178 195 189 163 190 179 229 253 171 210 211 204 212 215 209 210 229 240 238 238 237 233 235 228 222 229 244 261 274 286 297 306 311 314 316 316 316 316
169 192 153 86 101 119 194 188 193 199 222 210 246 228 183 207 207 214 218 211 205 229 250 247 241 242 236 231 232 223 223 236 253 265 274 280 286 293 301 307 310 310 310 312
343 109 80 334 89 79 276 235 172 219 187 252 253 257 181 209 218 223 227 221 220 251 255 256 252 245 233 232 232 227 232 244 260 268 269 271 275 284 294 303 307 308 308 312
147 129 114 231 112 101 273 222 195 175 188 171 213 238 181 201 211 225 234 233 242 251 256 250 246 242 229 229 233 235 245 254 262 266 267 269 275 285 291 299 304 304 308 312
148 137 155 134 68 221 249 30 90 204 219 210 334 214 181 202 219 230 218 228 239 246 247 244 237 229 226 232 242 248 254 263 267 266 265 269 278 283 287 295 298 300 306 310
349 130 141 160 202 316 225 186 155 163 246 188 207 216 187 186 187 234 212 236 259 253 246 240 224 217 217 231 248 260 265 266 267 261 261 268 275 277 283 289 292 298 305 311
24 5 195 144 193 222 258 224 146 117 267 205 198 195 160 150 128 242 300 269 259 250 234 234 219 221 238 255 269 269 269 268 265 260 257 261 266 273 283 289 291 300 307 312
116 68 211 194 230 280 197 179 148 121 246 178 195 192 166 176 204 284 283 268 261 251 250 231 234 245 259 267 266 271 276 273 261 254 255 260 268 279 286 289 292 300 308 313
161 172 199 124 190 257 165 106 167 191 140 165 171 177 186 222 249 262 255 246 233 250 248 249 254 258 266 267 267 270 275 270 261 257 259 266 275 282 288 288 294 302 309 313
231 188 180 189 204 258 176 185 188 164 170 183 197 203 217 221 241 262 257 245 253 262 258 261 264 267 265 267 266 266 270 264 260 260 265 271 278 284 286 285 293 303 310 313
241 146 183 106 195 211 197 206 188 212 225 232 236 233 229 234 270 277 266 248 261 267 267 275 270 269 268 269 266 267 264 261 261 265 270 275 281 285 282 285 295 304 311 312
199 133 158 262 235 195 232 218 222 235 247 260 264 256 255 259 280 276 268 260 266 270 273 276 275 277 275 266 264 263 261 263 267 271 275 280 283 283 281 287 296 305 310 311
182 158 174 211 199 189 214 230 246 242 248 262 270 263 265 273 272 276 269 269 277 271 276 276 277 274 266 263 262 261 263 267 269 273 278 281 281 279 282 289 296 303 308 311